Home   Weather   Drøbak   Past weeks

Flag for Norway Past Weather in Drøbak, Norway — Yesterday and Last 2 Weeks

Now
48 °F

Passing clouds.


Feels Like: 40 °F
Forecast: 28 / 33 °F
Wind: 26 mph from West

Location: Statfjord B

Current Time: Dec 5, 2016 at 3:26:56 am

Latest Report: Dec 5, 2016 at 2:50 am


Visibility: N/A

Pressure: 30.18 "Hg

Humidity: 71%

Dew Point: 39 °F

Location of DrøbakLocation

Past Weather in Drøbak — Graph

°F

Drøbak Temperature Yesterday

Maximum temperature yesterday: 50 °F (at 8:20 am)
Minimum temperature yesterday: 48 °F (at 12:20 am)
Average temperature yesterday: 49 °F

High & Low Weather Summary for the Past Weeks

 TemperatureHumidityPressure
High50 °F (Nov 24, 8:50 pm)100% (Nov 24, 3:50 pm)30.51 "Hg (Nov 24, 3:50 pm)
Low39 °F (Dec 1, 6:20 pm)42% (Nov 27, 6:50 am)29.27 "Hg (Nov 20, 1:20 am)
Average45 °F75%30.00 "Hg
* Reported Nov 20 1:20 am — Dec 5 1:50 am, Drøbak, Weather by CustomWeather, © 2016

Note: Actual official high and low records may vary slightly from our data, if they occured in-between our weather recording intervals... More about our weather records

Advertising

Drøbak Weather History for the Previous 24 Hours

Scroll right to see more
 ConditionsComfort  
Time TempWeatherWind HumidityBarometerVisibility
1:50 am
Mon, Dec 5
48 °FSprinkles. Passing clouds.23 mph62%30.18 "HgN/A
1:20 am48 °FPassing clouds.24 mph66%30.18 "HgN/A
12:50 am48 °FPassing clouds.23 mph66%30.21 "HgN/A
12:20 am48 °FPassing clouds.25 mph66%30.21 "HgN/A
11:50 pm
Sun, Dec 4
48 °FPassing clouds.28 mph66%30.21 "HgN/A
11:20 pm48 °FPassing clouds.28 mph71%30.21 "HgN/A
10:50 pm48 °FOvercast.29 mph71%30.21 "HgN/A
10:20 pm48 °FPassing clouds.29 mph76%30.21 "HgN/A
9:50 pm48 °FPassing clouds.29 mph76%30.21 "HgN/A
9:20 pm48 °FOvercast.30 mph76%30.21 "HgN/A
8:50 pm48 °FOvercast.30 mph66%30.21 "HgN/A
8:20 pm48 °FOvercast.29 mph76%30.21 "HgN/A
7:50 pm48 °FOvercast.31 mph76%30.21 "HgN/A
7:20 pm48 °FOvercast.30 mph82%30.21 "HgN/A
6:50 pm48 °FPassing clouds.29 mph82%30.21 "HgN/A
6:20 pm48 °FPassing clouds.28 mph87%30.21 "HgN/A
5:50 pm48 °FPassing clouds.31 mph87%30.21 "HgN/A
5:20 pm48 °FPassing clouds.30 mph87%30.18 "HgN/A
4:50 pm48 °FPartly cloudy.31 mph87%30.18 "HgN/A
4:20 pm48 °FPassing clouds.30 mph94%30.18 "HgN/A
3:50 pm48 °FPartly cloudy.29 mph87%30.18 "HgN/A
3:20 pm48 °FPassing clouds.29 mph87%30.18 "HgN/A
2:50 pm48 °FPartly sunny.31 mph87%30.18 "HgN/A
2:20 pm48 °FPartly sunny.29 mph87%30.21 "HgN/A
1:50 pm48 °FBroken clouds.28 mph87%30.21 "HgN/A
1:20 pm48 °FBroken clouds.30 mph87%30.21 "HgN/A
12:50 pm48 °FPartly sunny.30 mph87%30.21 "HgN/A
12:20 pm50 °FBroken clouds.28 mph82%30.21 "HgN/A
11:50 am50 °FScattered clouds.25 mph82%30.21 "HgN/A
11:20 am50 °FPartly sunny.25 mph82%30.21 "HgN/A
10:50 am50 °FScattered clouds.28 mph82%30.21 "HgN/A
10:20 am50 °FPartly sunny.29 mph82%30.21 "HgN/A
9:50 am50 °FPartly sunny.28 mph82%30.21 "HgN/A
9:20 am50 °FBroken clouds.29 mph82%30.21 "HgN/A
8:50 am50 °FPassing clouds.29 mph82%30.18 "HgN/A
8:20 am50 °FPassing clouds.29 mph82%30.18 "HgN/A
7:50 am48 °FPassing clouds.28 mph87%30.18 "HgN/A
7:20 am48 °FPassing clouds.26 mph87%30.18 "HgN/A
6:50 am48 °FPassing clouds.24 mph94%30.18 "HgN/A
6:20 am48 °FPassing clouds.24 mph94%30.18 "HgN/A
5:50 am48 °FPassing clouds.25 mph87%30.18 "HgN/A
5:20 am48 °FPassing clouds.25 mph87%30.18 "HgN/A
4:50 am48 °FPartly cloudy.24 mph87%30.18 "HgN/A
4:20 am48 °FPartly cloudy.25 mph87%30.18 "HgN/A
3:50 am48 °FPassing clouds.25 mph87%30.18 "HgN/A
3:20 am48 °FPassing clouds.24 mph87%30.18 "HgN/A
Weather by CustomWeather, © 2016

See weather overviewHow to use our weather pages